Powrót do katalogu

FENGYUN 1C DEB

AktywnySSO
NORAD 29773·DEBRIS·🇨🇳 China

Wystrzelony May 10, 1999 z Taiyuan Satellite Launch Center

Loading…

Następne Przeloty (najbliższe 24 godziny)

TLE

ŚwieżeSource: Space-Track

Epoka: Sep 14, 2026, 09:25 UTC

1 29773U 99025BP  26257.39298833  .00000543  00000-0  23524-3 0  9991
2 29773  99.0210  64.4006 0046620 212.6711 176.1851 14.28021080 21300

Śledź FENGYUN 1C DEB w czasie rzeczywistym z AllMySat

Download on the App Store